Terminal Aerodrome Forecast
Issued by NWS

Home | Current Version | Previous Version | Text Only | Print | Product List | Glossary On
Versions: 1 2 3 4 5 6 7 8 9 10 11 12 13 14 15 16 17 18 19 20 21 22 23 24 25 26 27 28 29 30 31 32
247
FTUS43 KDLH 261526 AAB
TAFHIB
TAF AMD
KHIB 261526Z 2615/2712 29012G21KT P6SM -SHRA OVC025
     FM261800 30018G30KT P6SM -SHRA SCT025 OVC030
     FM270100 31016G27KT P6SM -SHRA OVC025
     FM270600 31014G23KT P6SM -SHRA OVC015=

USA.gov is the U.S. government's official web portal to all federal, state and local government web resources and services.